[[{"header":{"parameterUnit":"m.s-1","parameterCategory":1,"la1":30.2991,"la2":30.254,"lo1":-89.0895,"lo2":-89.0444,"dy":0.0017,"dx":0.0017,"nx":28,"ny":28,"refTime":"2024-08-15T21:00:00:Z","depth":0,"parameterNumber":2,"parameterNumberName":"U-component_of_WINDS"},"data":[0,0,0,0,0,0,0,0,0,0,0,0,0,0,0,0,0,0,0,0,0,0,0,0,0,0,0,0,0,0,0,0,0,0,0,0,0,0,0,0,0,0,0,0,0,0,0,0,0,0,0,0,0,0,0,0,0,0,-1.384,-1.384,0,-1.3806,-1.3806,-1.3805,-1.3747,-1.3746,-1.3745,-1.3744,-1.3711,-1.3711,-1.3711,0,0,0,0,0,0,0,0,0,0,0,0,0,-1.3856,-1.3856,-1.384,-1.384,-1.3839,-1.3806,-1.3806,-1.3805,-1.3747,-1.3746,-1.3745,-1.3744,-1.3711,-1.3711,-1.3711,0,0,0,0,0,0,0,0,0,0,0,0,0,-1.3838,-1.3856,-1.384,-1.3806,-1.3803,-1.3806,-1.3806,-1.3805,-1.3748,-1.3746,-1.3744,-1.3743,-1.3711,-1.3711,-1.3711,-1.3745,0,0,-1.3712,-1.3712,0,0,0,0,0,0,0,0,-1.3839,-1.3838,-1.3812,-1.3809,-1.3805,-1.3779,-1.3799,-1.3785,-1.3748,-1.3769,-1.3744,-1.3742,-1.3735,-1.3733,-1.3731,-1.3744,-1.3742,-1.3712,-1.3712,-1.3712,-1.3712,0,0,0,0,0,0,0,-1.3841,-1.3839,-1.3827,-1.3811,-1.3807,-1.3793,-1.3789,-1.3796,-1.3762,-1.3767,-1.3762,-1.3759,-1.3733,-1.3731,-1.3729,-1.3742,-1.3712,-1.3712,-1.3712,-1.3712,-1.3781,-1.3782,0,0,0,0,0,0,-1.3847,-1.384,-1.3828,-1.3826,-1.3818,-1.3794,-1.3789,-1.3789,-1.3761,-1.3755,-1.3761,-1.3757,-1.3731,-1.3729,-1.3728,-1.3765,-1.3712,-1.3712,-1.3713,-1.3779,-1.3781,-1.3783,0,0,0,0,0,0,-1.3847,-1.3846,-1.3829,-1.3832,-1.3828,-1.3796,-1.3796,-1.3789,-1.3787,-1.3757,-1.375,-1.3764,-1.373,-1.3728,-1.3741,-1.3764,-1.3713,-1.3713,-1.3777,-1.378,-1.3782,-1.3841,0,0,0,0,0,0,-1.3848,-1.3847,-1.3859,-1.3832,-1.3829,-1.3843,-1.3797,-1.379,-1.3787,-1.3781,-1.3758,-1.3753,-1.3728,-1.3741,-1.3741,-1.3763,-1.3713,-1.3775,-1.3778,-1.3781,-1.3837,-1.3846,-1.3853,0,0,0,0,0,-1.3849,-1.3878,-1.386,-1.3859,-1.3843,-1.3844,-1.3842,-1.3812,-1.3789,-1.3801,-1.3782,-1.3754,-1.3761,-1.3743,-1.3743,-1.3765,-1.3773,-1.3777,-1.3781,-1.3834,-1.3844,-1.3853,0,0,0,0,0,0,-1.3908,-1.3873,-1.3854,-1.3875,-1.3863,-1.3834,-1.3849,-1.3824,-1.3819,-1.3814,-1.3778,-1.3773,-1.3791,-1.3779,-1.376,-1.3796,-1.3763,-1.3767,-1.3803,-1.3813,-1.382,-1.3823,-1.3713,0,0,0,0,0,-1.3924,-1.3927,-1.3896,-1.3918,-1.3913,-1.3882,-1.3881,-1.3859,-1.3846,-1.3841,-1.3822,-1.3811,-1.381,-1.3811,-1.3809,-1.3835,-1.3829,-1.385,-1.3858,-1.3864,-1.3868,-1.3881,-1.389,-1.3796,-1.3796,-1.3795,0,0,-1.3956,-1.3937,-1.3942,-1.393,-1.3918,-1.3922,-1.3878,-1.3885,-1.3888,-1.3842,-1.3853,-1.3839,-1.3824,-1.3844,-1.3852,-1.3835,-1.3893,-1.3869,-1.3875,-1.3875,-1.3886,-1.3895,-1.3903,-1.3798,-1.3798,-1.3797,0,0,-1.4017,-1.4003,-1.4019,-1.4008,-1.3991,-1.397,-1.3974,-1.3949,-1.3938,-1.3949,-1.3914,-1.3917,-1.3917,-1.3907,-1.3902,-1.3959,-1.3933,-1.396,-1.4,-1.4013,-1.4021,-1.4027,-1.4047,-1.4055,-1.3964,-1.3964,-1.3964,0,-1.406,-1.4064,-1.4031,-1.404,-1.4035,-1.3993,-1.4009,-1.4,-1.3983,-1.3981,-1.3962,-1.3961,-1.3947,-1.3964,-1.3978,-1.3976,-1.3979,-1.3962,-1.4022,-1.4028,-1.4034,-1.4052,-1.406,-1.3967,-1.3967,-1.3966,-1.3966,0,-1.4118,-1.4121,-1.4137,-1.412,-1.4118,-1.413,-1.4099,-1.41,-1.4078,-1.406,-1.4071,-1.4053,-1.4047,-1.4049,-1.4028,-1.4063,-1.4053,-1.4029,-1.3995,-1.4047,-1.4063,-1.407,-1.3972,-1.3971,-1.397,-1.3969,0,0,-1.4216,-1.418,-1.4186,-1.4178,-1.4155,-1.4158,-1.4168,-1.4161,-1.4163,-1.4153,-1.4161,-1.4161,-1.4138,-1.4132,-1.411,-1.4121,-1.4167,-1.4095,-1.4094,-1.4109,-1.4204,-1.4223,-1.4232,-1.4149,-1.4151,-1.4152,-1.4205,0,-1.4272,-1.4287,-1.4257,-1.428,-1.4283,-1.4243,-1.4252,-1.4239,-1.4222,-1.4222,-1.4203,-1.4204,-1.4173,-1.417,-1.4179,-1.416,-1.4186,-1.4155,-1.4157,-1.4157,-1.4162,-1.4241,-1.4261,-1.4312,-1.4212,-1.4213,-1.4214,0,-1.434,-1.4332,-1.4355,-1.433,-1.433,-1.4339,-1.4329,-1.433,-1.4315,-1.4301,-1.4295,-1.4268,-1.4277,-1.4244,-1.4255,-1.4235,-1.4234,-1.4224,-1.4226,-1.4225,-1.4189,-1.4242,-1.4328,-1.4336,-1.4224,-1.4223,-1.4222,0,-1.4409,-1.4404,-1.4417,-1.4411,-1.4383,-1.439,-1.4378,-1.4361,-1.4358,-1.435,-1.4348,-1.4342,-1.4338,-1.4334,-1.4306,-1.4285,-1.4321,-1.4286,-1.431,-1.4311,-1.432,-1.432,-1.4407,-1.4319,-1.4319,-1.4319,-1.4319,0,-1.4475,-1.4491,-1.4448,-1.4456,-1.4472,-1.4437,-1.4454,-1.4439,-1.4424,-1.4428,-1.4393,-1.4398,-1.4361,-1.4362,-1.434,-1.4353,-1.4351,-1.4341,-1.4335,-1.4344,-1.4345,-1.4343,-1.4339,-1.4321,-1.4321,-1.432,-1.432,0,-1.4556,-1.4527,-1.4539,-1.451,-1.4503,-1.4517,-1.4492,-1.4499,-1.4479,-1.4485,-1.4484,-1.4453,-1.4452,-1.4424,-1.4417,-1.4403,-1.4425,-1.4412,-1.443,-1.4426,-1.4452,-1.445,-1.4541,-1.4551,-1.4457,-1.4457,-1.4458,0,-1.46,-1.4611,-1.4583,-1.4583,-1.4573,-1.4574,-1.4571,-1.4537,-1.4535,-1.4518,-1.4526,-1.4523,-1.4518,-1.4518,-1.4495,-1.449,-1.4477,-1.4509,-1.4476,-1.4485,-1.4478,-1.4478,-1.4478,-1.4517,-1.4518,-1.4519,-1.452,0,-1.4681,-1.4666,-1.4663,-1.4655,-1.4652,-1.4644,-1.4634,-1.4636,-1.4599,-1.4599,-1.4597,-1.4593,-1.4586,-1.4583,-1.4573,-1.4561,-1.4535,-1.453,-1.4535,-1.4545,-1.4555,-1.455,-1.4449,-1.4528,-1.4527,-1.4527,-1.4526,-1.4526,-1.4745,-1.4752,-1.4734,-1.4731,-1.472,-1.4711,-1.4715,-1.4695,-1.4693,-1.4684,-1.4664,-1.4666,-1.465,-1.4634,-1.4624,-1.4625,-1.4609,-1.4617,-1.4619,-1.4621,-1.4626,-1.4555,-1.4623,-1.4623,-1.4623,-1.4622,-1.4622,0,-1.4824,-1.481,-1.4808,-1.4794,-1.4792,-1.4766,-1.4753,-1.4754,-1.4755,-1.4742,-1.4737,-1.4735,-1.4732,-1.4708,-1.4702,-1.4707,-1.4695,-1.4706,-1.4706,-1.4704,-1.4641,-1.4637,-1.4717,-1.4717,-1.4717,-1.4717,-1.4717,-1.4716,-1.4866,-1.4877,-1.486,-1.4865,-1.4851,-1.4852,-1.4846,-1.4838,-1.4827,-1.4826,-1.4823,-1.4807,-1.479,-1.4781,-1.4777,-1.477,-1.477,-1.4786,-1.4775,-1.4717,-1.4708,-1.4699,-1.4695,-1.4786,-1.4786,-1.4837,-1.4838,-1.4838]},{"header":{"parameterUnit":"m.s-1","parameterCategory":1,"la1":30.2991,"la2":30.254,"lo1":-89.0895,"lo2":-89.0444,"dy":0.0017,"dx":0.0017,"nx":28,"ny":28,"refTime":"2024-08-15T21:00:00:Z","depth":0,"parameterNumber":3,"parameterNumberName":"V-component_of_WINDS"},"data":[0,0,0,0,0,0,0,0,0,0,0,0,0,0,0,0,0,0,0,0,0,0,0,0,0,0,0,0,0,0,0,0,0,0,0,0,0,0,0,0,0,0,0,0,0,0,0,0,0,0,0,0,0,0,0,0,0,0,4.38,4.3801,0,4.3924,4.3925,4.3927,4.3935,4.3934,4.3932,4.3931,4.4056,4.4061,4.4065,0,0,0,0,0,0,0,0,0,0,0,0,0,4.3567,4.3572,4.3799,4.3801,4.3803,4.3924,4.3925,4.3927,4.3935,4.3933,4.3932,4.393,4.4055,4.406,4.4066,0,0,0,0,0,0,0,0,0,0,0,0,0,4.3678,4.3573,4.3799,4.3821,4.3825,4.3923,4.3926,4.3928,4.3936,4.3933,4.3931,4.3929,4.4053,4.4059,4.4066,4.4151,0,0,4.4088,4.4091,0,0,0,0,0,0,0,0,4.3671,4.3686,4.3817,4.382,4.3824,4.3912,4.389,4.4002,4.3936,4.3893,4.3931,4.3928,4.401,4.402,4.4048,4.4157,4.4162,4.4088,4.4092,4.4095,4.4097,0,0,0,0,0,0,0,4.3664,4.3681,4.3849,4.3818,4.3823,4.3824,4.3838,4.3911,4.3962,4.3897,4.3898,4.3912,4.4011,4.4041,4.4051,4.4164,4.4088,4.4094,4.4098,4.4101,4.4349,4.4351,0,0,0,0,0,0,4.3652,4.3674,4.3845,4.3852,4.3741,4.383,4.3845,4.3886,4.3961,4.397,4.3914,4.3912,4.403,4.4043,4.4055,4.4159,4.4095,4.4102,4.4106,4.4346,4.4349,4.4352,0,0,0,0,0,0,4.3647,4.3667,4.384,4.3764,4.3786,4.3837,4.3882,4.3889,4.3919,4.3974,4.3983,4.3936,4.4029,4.4045,4.4127,4.4163,4.4105,4.4111,4.4343,4.4347,4.435,4.4367,0,0,0,0,0,0,4.364,4.3665,4.3698,4.3764,4.379,4.391,4.3884,4.3893,4.3931,4.393,4.3996,4.4005,4.4029,4.4117,4.4134,4.4172,4.4117,4.434,4.4345,4.4349,4.4363,4.4371,4.4377,0,0,0,0,0,4.3632,4.3698,4.37,4.372,4.3832,4.3912,4.3927,4.3953,4.3934,4.3968,4.4003,4.4003,4.4157,4.4125,4.4145,4.4185,4.4338,4.4344,4.4349,4.436,4.4369,4.4377,0,0,0,0,0,0,4.3633,4.3707,4.371,4.3799,4.385,4.3913,4.3956,4.3962,4.4018,4.4014,4.4044,4.4059,4.414,4.4171,4.4134,4.4271,4.4245,4.4255,4.4247,4.4256,4.4263,4.4253,4.4122,0,0,0,0,0,4.3644,4.3704,4.3764,4.3837,4.3862,4.3905,4.3941,4.3957,4.401,4.4031,4.4072,4.4123,4.4183,4.4221,4.428,4.4368,4.4382,4.4406,4.4413,4.4418,4.4425,4.4474,4.4485,4.437,4.437,4.4369,0,0,4.3667,4.3714,4.375,4.3838,4.3879,4.3939,4.3923,4.3987,4.4032,4.404,4.412,4.4152,4.4211,4.4297,4.4336,4.4325,4.4461,4.4425,4.4429,4.4433,4.4481,4.4491,4.4501,4.4373,4.4373,4.4372,0,0,4.3739,4.3781,4.3846,4.3888,4.395,4.3978,4.3994,4.4058,4.4079,4.416,4.4168,4.4221,4.4324,4.4365,4.44,4.4488,4.449,4.4507,4.4541,4.4588,4.4597,4.4605,4.4636,4.4647,4.4514,4.4514,4.4514,0,4.3759,4.385,4.3878,4.3943,4.3981,4.3993,4.4059,4.4098,4.4176,4.4202,4.4188,4.4317,4.4358,4.4453,4.4475,4.4503,4.4521,4.4498,4.4594,4.4602,4.461,4.464,4.4651,4.4516,4.4515,4.4515,4.4515,0,4.3871,4.3934,4.3979,4.4055,4.4099,4.4163,4.4201,4.4242,4.4255,4.4284,4.4366,4.4415,4.4483,4.4507,4.452,4.4604,4.4595,4.4588,4.4563,4.4622,4.465,4.4662,4.4518,4.4517,4.4517,4.4516,0,0,4.3945,4.4037,4.4053,4.4087,4.4157,4.4207,4.4272,4.4339,4.4373,4.4427,4.4482,4.4569,4.4562,4.4602,4.4619,4.4661,4.4727,4.4648,4.465,4.466,4.4822,4.4826,4.4839,4.4729,4.4732,4.4734,4.4816,0,4.4024,4.4141,4.4168,4.4268,4.4326,4.4339,4.4396,4.4445,4.4474,4.4528,4.4561,4.4621,4.4609,4.4632,4.4674,4.471,4.4759,4.4705,4.4779,4.4782,4.4763,4.4853,4.4858,4.4934,4.4828,4.483,4.4831,0,4.4131,4.4187,4.4293,4.4356,4.4381,4.4432,4.4496,4.4547,4.4603,4.4621,4.4666,4.468,4.4747,4.472,4.4814,4.4776,4.4808,4.483,4.4834,4.4841,4.4809,4.4861,4.4959,4.4969,4.4849,4.4847,4.4846,0,4.4173,4.4276,4.4352,4.4381,4.4457,4.4492,4.4525,4.4579,4.4617,4.4673,4.4699,4.4762,4.4796,4.4844,4.4874,4.4852,4.4965,4.4941,4.4982,4.4981,4.5003,4.5001,4.5106,4.5027,4.5027,4.5027,4.5026,0,4.4256,4.432,4.4372,4.4419,4.449,4.4522,4.4592,4.4625,4.4673,4.4726,4.4741,4.4791,4.4828,4.4883,4.4907,4.498,4.4996,4.5012,4.5018,4.501,4.5008,4.503,4.5025,4.503,4.5029,4.5028,4.5028,0,4.4315,4.4352,4.4436,4.4501,4.4519,4.4569,4.4624,4.467,4.47,4.4767,4.4785,4.4832,4.4897,4.4933,4.5014,4.503,4.5112,4.5115,4.5093,4.5095,4.5133,4.5129,4.5255,4.5273,4.5183,4.5184,4.5185,0,4.4365,4.4414,4.4485,4.4522,4.4555,4.4615,4.4654,4.4688,4.4729,4.4796,4.4834,4.49,4.4954,4.5057,4.5099,4.5161,4.5165,4.5205,4.5174,4.5165,4.5164,4.516,4.5165,4.521,4.5211,4.5211,4.5212,0,4.4449,4.4466,4.4523,4.4587,4.4634,4.4686,4.4737,4.4766,4.4808,4.4853,4.492,4.4962,4.5046,4.5111,4.5177,4.521,4.5218,4.5222,4.5234,4.5226,4.5211,4.5218,4.5106,4.5218,4.5217,4.5217,4.5217,4.5216,4.4504,4.4549,4.4605,4.4668,4.4711,4.4758,4.4804,4.4841,4.4897,4.4968,4.4985,4.5055,4.511,4.5199,4.5235,4.529,4.5282,4.53,4.5305,4.5309,4.5309,4.5203,4.5302,4.5302,4.5302,4.5302,4.5302,0,4.4588,4.4626,4.4684,4.4755,4.4805,4.4809,4.4866,4.4907,4.4969,4.502,4.5073,4.515,4.5214,4.5261,4.5325,4.5361,4.5366,4.5376,4.5373,4.5381,4.5313,4.5295,4.5371,4.5371,4.5371,4.5371,4.5371,4.5371,4.4638,4.4713,4.4736,4.4832,4.4869,4.4938,4.497,4.5014,4.5055,4.514,4.5193,4.5224,4.5273,4.5342,4.54,4.5412,4.5435,4.5445,4.5457,4.5393,4.5385,4.5378,4.5361,4.545,4.545,4.552,4.552,4.5521]}]]